"Pseudo-MPEC" for C0J2RF5

Created 2023 Sep 19 11:22:04 UT using Find_Orb

Click here for an explanation of pseudo-MPECs

 
 Astrometry: 
     C0J2RF5* C2023 09 16.12690617 23 41.363+43 45 58.25   ~9G47 21.16GVNEOCPV00
     C0J2RF5  C2023 09 16.13298217 23 38.306+43 45 01.87   ~9G47 21.16GVNEOCPV00
     C0J2RF5  C2023 09 16.13925417 23 35.182+43 44 03.88   ~9G47 21.63GVNEOCPV00
     C0J2RF5  C2023 09 16.14530717 23 32.176+43 43 07.39   ~9G47 21.33GVNEOCPV00
     C0J2RF5 KC2023 09 16.24836117 22 44.740+43 26 22.60   ~9G6q 20.92GVNEOCPI52
     C0J2RF5 KC2023 09 16.26230317 22 39.150+43 24 01.90   ~9G6q 20.55GVNEOCPI52
     C0J2RF5 KC2023 09 16.26665817 22 37.570+43 23 18.60   ~9G6qx21.01GVNEOCPI52
     C0J2RF5 1C2023 09 16.79084 17 19 36.03 +42 02 57.5    ~9GKM 20.9 VXNEOCP033
     C0J2RF5 1C2023 09 16.79223 17 19 35.35 +42 02 43.4    ~9GKM 21.3 VXNEOCP033
     C0J2RF5 1C2023 09 16.79361 17 19 34.66 +42 02 29.6    ~9GKM 21.4 VXNEOCP033
     C0J2RF5 1C2023 09 16.79504 17 19 33.96 +42 02 15.0    ~9GKM 21.7 VXNEOCP033
     C0J2RF5 1C2023 09 17.81338 17 12 49.02 +39 03 40.2    ~9HKM 20.7 VXNEOCP033
     C0J2RF5 1C2023 09 17.81500 17 12 48.22 +39 03 20.7    ~9HKM 21.0 VXNEOCP033
     C0J2RF5  C2023 09 18xB6AstrometryK52Ld3%0*LF[redacted;?$N\8Il2/YkVK_=]:.654
     C0J2RF5  C2023 09 18cO@5:.o$lAJ':(VwclickAhere%i-5for#xENexplanation^dlu654
     C0J2RF5 1C2023 09 18.79843 17 05 50.96 +35 39 32.0    ~9J7b 20.3 VXNEOCP033
     C0J2RF5 1C2023 09 18.79953 17 05 50.38 +35 39 16.3    ~9J7b 20.4 VXNEOCP033
     C0J2RF5 1C2023 09 18.80063 17 05 49.78 +35 39 01.2    ~9J7b 20.8 VXNEOCP033
     C0J2RF5 1C2023 09 18.80172 17 05 49.17 +35 38 45.6    ~9J7b 20.8 VXNEOCP033
     C0J2RF5 KC2023 09 19.12437 17 03 22.78 +34 26 08.8    ~9J3b 21.0 RoNEOCP291
     C0J2RF5 KC2023 09 19.12705 17 03 21.21 +34 25 28.4    ~9J3b 21.6 RoNEOCP291
     C0J2RF5 KC2023 09 19.12974 17 03 19.62 +34 24 48.6    ~9J3b 21.3 RoNEOCP291
     C0J2RF5 KC2023 09 19.14943717 03 07.855+34 19 44.76   ~9J4b 21.05GVNEOCPI52
     C0J2RF5 KC2023 09 19.15128417 03 06.786+34 19 16.75   ~9J4b 20.45GVNEOCPI52
     C0J2RF5 KC2023 09 19.15312817 03 05.713+34 18 48.78   ~9J4b 20.55GVNEOCPI52

Station data:
(033) Karl Schwarzschild Observatory, Tautenburg  (N50.980137 E11.711240)
   Germany.  Observer B. Stecklum. 1.34-m f/3 Schmidt + CCD.
(291) LPL/Spacewatch II  (N31.961669 W111.599905)  US/Arizona.  Observers J.
   V. Scotti, R. S. McMillan. 1.8-m f/2.7 reflector + CCD.
(654) Table Mountain Observatory, Wrightwood-PHMC  (N34.381820 W117.681590)
   US/California.  Observers P. Choi, N. Saini, C. Zhai, R. Trahan, M. Shao.
(I52) Steward Observatory, Mt. Lemmon Station  (N32.442544 W110.788920)
   US/Arizona.  Observers T. A. Pruyne, B. M. Africano, E. J. Christensen, G.
   A. Farneth, D. C. Fuls, A. R. Gibbs, A. D. Grauer, H. Gröller, J. A.
   Johnson, R. A. Kowalski, S. M. Larson, G. J. Leonard, D. Rankin, R. L.
   Seaman, F. C. Shelly, K. W. Wierzchoś. 1.0-m prime focus + CCD.
(V00) Kitt Peak-Bok  (N31.963125 W111.600190)  US/Arizona.  Observers T. A.
   Pruyne, B. M. Africano, E. J. Christensen, G. A. Farneth, D. C. Fuls, A.
   R. Gibbs, A. D. Grauer, H. Gröller, J. A. Johnson, R. A. Kowalski, S. M.
   Larson, G. J. Leonard, D. Rankin, R. L. Seaman, F. C. Shelly, K. W.
   Wierzchoś. 2.25-m reflector + 4x4K mosaic CCD.

Orbital elements:  C0J2RF5
   Perihelion 2023 Dec 27.89661 +/- 0.0351 TT = 21:31:06 (JD 2460306.39661)
Epoch 2023 Sep 19.0 TT = JDT 2460206.5   Earth MOID: 0.0080      AutoNEOCP
M 259.96275482 +/- 0.037            (J2000 ecliptic)
n   1.00140783 +/- 2.98e-5          Peri.  278.55633 +/- 0.031
a   0.98945351 +/- 1.96e-5          Node   182.30971 +/- 0.0011
e   0.0544405 +/- 6.11e-5           Incl.    8.04351 +/- 0.013
P   0.98/359.49d           H 25.88  G  0.15   U  5.8
q 0.93558708 +/- 5.73e-5    Q 1.04331994 +/- 6.98e-5
24 of 25 observations 2023 Sept. 16-19; mean residual 0".29
Residuals in arcseconds: 
230916 V00  .18-  .23+    230916 033  .29-  .34+    230918 033  .07-  .01+    
230916 V00  .15-  .02+    230916 033  .40-  .24+    230919 291  .33-  .10-    
230916 V00  .03+  .32+    230917 033  .15-  .05+    230919 291  .04+  .25-    
230916 V00  .09+  .38+    230917 033  .00   .07+    230919 291  .17+  .41+    
230916 I52  .24-  .02+    230918 654  .18-  .01-    230919 I52  .12+  .17-    
230916 I52  .90+  1.3-    230918 654  .19-  .04-    230919 I52  .09+  .04-    
230916 I52( 2.7+  .92-)   230918 033  .10+  .06-    230919 I52  .03-  .12+    
230916 033  .05+  .19+    230918 033  .27+  .23-    
230916 033  .03-  .16+    230918 033  .20+  .21+    

Ephemerides (geocentric):
Date (UTC) HH   RA             Dec           delta  r     elong  mag " sig PA
---- --------  ------------   ------------  ------ ------ -----  --- --------
2023 09 19 11  17 01 06.049   +33 04 34.26  .02102 1.0012  79.9 21.1 .333  83
2023 09 19 12  17 00 46.716   +32 54 01.15  .02094 1.0012  79.8 21.1 .331  84
2023 09 19 13  17 00 27.320   +32 43 23.39  .02087 1.0011  79.7 21.1 .329  85
2023 09 19 14  17 00 07.862   +32 32 40.94  .02080 1.0011  79.6 21.1 .328  87
2023 09 19 15  16 59 48.341   +32 21 53.77  .02072 1.0011  79.5 21.1 .326  88
2023 09 19 16  16 59 28.757   +32 11 01.83  .02065 1.0010  79.4 21.1 .324  90
2023 09 19 17  16 59 09.109   +32 00 05.08  .02058 1.0010  79.3 21.1 .323  91
2023 09 19 18  16 58 49.397   +31 49 03.50  .02050 1.0010  79.2 21.1 .321  93
2023 09 19 19  16 58 29.621   +31 37 57.05  .02043 1.0009  79.1 21.0 .320  95
2023 09 19 20  16 58 09.780   +31 26 45.68  .02036 1.0009  79.0 21.0 .319  96
2023 09 19 21  16 57 49.875   +31 15 29.37  .02029 1.0008  78.8 21.0 .318  98
2023 09 19 22  16 57 29.904   +31 04 08.07  .02022 1.0008  78.7 21.0 .318 100
2023 09 19 23  16 57 09.869   +30 52 41.74  .02014 1.0008  78.6 21.0 .318 102
2023 09 20 00  16 56 49.767   +30 41 10.36  .02007 1.0007  78.5 21.0 .318 104
2023 09 20 01  16 56 29.600   +30 29 33.88  .02000 1.0007  78.4 21.0 .319 106
2023 09 20 02  16 56 09.366   +30 17 52.27  .01993 1.0007  78.3 21.0 .320 109
2023 09 20 03  16 55 49.066   +30 06 05.48  .01986 1.0006  78.2 21.0 .321 111
2023 09 20 04  16 55 28.699   +29 54 13.49  .01979 1.0006  78.0 21.0 .323 113
2023 09 20 05  16 55 08.265   +29 42 16.25  .01972 1.0005  77.9 21.0 .326 116
2023 09 20 06  16 54 47.763   +29 30 13.73  .01965 1.0005  77.8 21.0 .330 118
2023 09 20 07  16 54 27.193   +29 18 05.89  .01958 1.0005  77.7 21.0 .334 121
2023 09 20 08  16 54 06.556   +29 05 52.69  .01951 1.0004  77.6 21.0 .339 123
2023 09 20 09  16 53 45.850   +28 53 34.10  .01944 1.0004  77.5 21.0 .344 126
2023 09 20 10  16 53 25.075   +28 41 10.08  .01937 1.0004  77.3 21.0 .351 128
2023 09 20 11  16 53 04.231   +28 28 40.59  .01931 1.0003  77.2 21.0 .358 130
2023 09 20 12  16 52 43.318   +28 16 05.60  .01924 1.0003  77.1 21.0 .366 133
2023 09 20 13  16 52 22.336   +28 03 25.07  .01917 1.0002  77.0 21.0 .376 135
2023 09 20 14  16 52 01.283   +27 50 38.96  .01910 1.0002  76.8 21.0 .386 138
2023 09 20 15  16 51 40.160   +27 37 47.24  .01904 1.0002  76.7 21.0 .396 140
2023 09 20 16  16 51 18.967   +27 24 49.88  .01897 1.0001  76.6 21.0 .408 142
2023 09 20 17  16 50 57.702   +27 11 46.82  .01890 1.0001  76.5 21.0 .421 144
2023 09 20 18  16 50 36.367   +26 58 38.05  .01884 1.0000  76.3 21.0 .435 146
2023 09 20 19  16 50 14.959   +26 45 23.53  .01877 1.0000  76.2 21.0 .450 148
2023 09 20 20  16 49 53.480   +26 32 03.21  .01870 1.0000  76.1 21.0 .466 150
2023 09 20 21  16 49 31.929   +26 18 37.07  .01864 0.9999  76.0 21.0 .482 152
2023 09 20 22  16 49 10.305   +26 05 05.08  .01857 0.9999  75.8 21.0 .500 154
2023 09 20 23  16 48 48.609   +25 51 27.19  .01851 0.9999  75.7 21.0 .519 156
2023 09 21 00  16 48 26.839   +25 37 43.37  .01844 0.9998  75.6 21.0 .538 158
2023 09 21 01  16 48 04.996   +25 23 53.59  .01838 0.9998  75.4 21.0 .559 159
2023 09 21 02  16 47 43.079   +25 09 57.83  .01832 0.9997  75.3 21.0 .580 161
2023 09 21 03  16 47 21.088   +24 55 56.03  .01825 0.9997  75.2 21.0 .603 162
2023 09 21 04  16 46 59.022   +24 41 48.18  .01819 0.9997  75.0 21.0 .627 163
2023 09 21 05  16 46 36.882   +24 27 34.24  .01813 0.9996  74.9 21.0 .651 165
2023 09 21 06  16 46 14.666   +24 13 14.18  .01806 0.9996  74.8 21.0 .677 166
2023 09 21 07  16 45 52.376   +23 58 47.97  .01800 0.9996  74.6 21.0 .703 167
2023 09 21 08  16 45 30.009   +23 44 15.58  .01794 0.9995  74.5 21.0 .731 168
2023 09 21 09  16 45 07.566   +23 29 36.97  .01788 0.9995  74.4 21.0 .759 169
2023 09 21 10  16 44 45.047   +23 14 52.13  .01782 0.9994  74.2 21.0 .788 170